Weather History for Eau Claire, WI

Change the Weather History Date:

Sunday, January 27, 2013

  Actual Average Record
Temperature  
Mean Temperature 26 °F 15 °F  
Max Temperature 31 °F 24 °F 50 °F (2006)
Min Temperature 20 °F 5 °F -31 °F (1904)
Degree Days  
Heating Degree Days 39 50  
Month to date heating degree days 1346 1370  
Since 1 July heating degree days 4373 4546  
Cooling Degree Days 0 0  
Month to date cooling degree days 0 0  
Year to date cooling degree days 0 0  
Moisture  
Dew Point 23 °F    
Average Humidity 75    
Maximum Humidity 92    
Minimum Humidity 58    
Precipitation  
Precipitation 0.24 in 0.03 in 0.51 in (1944)
Month to date precipitation 0.58 0.77  
Year to date precipitation 0.58 0.77  
Snow  
Snow 2.10 in 0.50 in 7.00 in (2010)
Month to date snowfall 3.8 11.6  
Since 1 July snowfall 25.6 27.4  
Snow Depth 1.00 in    
Sea Level Pressure  
Sea Level Pressure 29.97 in    
Wind  
Wind Speed 7 mph (ESE)    
Max Wind Speed 15 mph    
Max Gust Speed 22 mph    
Visibility 4 miles    
Events Fog , Rain , Snow    
T = Trace of Precipitation, MM = Missing Value Source: NWS Daily Summary

Daily Weather History Graph

Daily Weather History Graph

Search for Another Location

Airport:

Trip Planner

Search our weather history database for the weather conditions in past years. The results will help you decide how hot, cold, wet, or windy it might be!

Date:

Astronomy

Jan. 27, 2013 Rise Set
Actual Time 7:30 AM CST 5:07 PM CST
Civil Twilight 6:58 AM CST 5:39 PM CST
Nautical Twilight 6:23 AM CST 6:14 PM CST
Astronomical Twilight 5:49 AM CST 6:49 PM CST
Moon 6:06 PM CST (1/27) 7:19 AM CST (1/27)
Length of Visible Light 10h 40m
Length of Day
9h 37m
Full, 100% of the Moon is Illuminated
Jan 27
Full
Feb 3
Last Quarter
Feb 10
New
Feb 17
First Quarter
Feb 25
Full

Hourly Weather History & Observations

Time (CST) Temp. Windchill Dew Point Humidity Pressure Visibility Wind Dir Wind Speed Gust Speed Precip Events Conditions
12:56 AM 23.0 °F 15.8 °F 10.9 °F 60% 30.22 in 10.0 mi SSE 5.8 mph - N/A   Mostly Cloudy
1:56 AM 21.9 °F 12.5 °F 10.0 °F 60% 30.21 in 10.0 mi SSE 8.1 mph - N/A   Mostly Cloudy
2:56 AM 21.9 °F 13.4 °F 10.9 °F 63% 30.20 in 10.0 mi SE 6.9 mph - N/A   Overcast
3:56 AM 23.0 °F 14.7 °F 10.9 °F 60% 30.17 in 10.0 mi SE 6.9 mph - N/A   Mostly Cloudy
4:56 AM 21.9 °F 15.7 °F 10.9 °F 63% 30.15 in 10.0 mi SE 4.6 mph - N/A   Scattered Clouds
5:56 AM 21.0 °F 13.4 °F 10.9 °F 65% 30.14 in 10.0 mi ESE 5.8 mph - N/A   Partly Cloudy
6:56 AM 23.0 °F 17.0 °F 12.9 °F 65% 30.14 in 10.0 mi ESE 4.6 mph - N/A   Overcast
7:56 AM 24.1 °F 18.2 °F 14.0 °F 65% 30.13 in 10.0 mi SE 4.6 mph - N/A   Overcast
8:56 AM 27.0 °F 16.7 °F 15.1 °F 61% 30.12 in 10.0 mi SE 11.5 mph - N/A   Overcast
9:56 AM 28.0 °F 19.3 °F 16.0 °F 61% 30.11 in 10.0 mi SSE 9.2 mph - N/A   Overcast
10:56 AM 28.9 °F 19.8 °F 15.1 °F 56% 30.09 in 10.0 mi SSE 10.4 mph - N/A   Overcast
11:51 AM 30.2 °F 20.8 °F 19.4 °F 64% 30.03 in 7.0 mi SE 11.5 mph - 0.01 in Rain Light Freezing Rain
11:56 AM 30.0 °F 23.2 °F 19.9 °F 66% 30.07 in 6.0 mi SE 6.9 mph - 0.01 in Rain Light Freezing Rain
12:45 PM 30.2 °F 23.4 °F 23.0 °F 75% 30.00 in 6.0 mi East 6.9 mph - 0.01 in   Overcast
12:56 PM 28.9 °F 21.9 °F 24.1 °F 82% 30.03 in 2.5 mi East 6.9 mph - 0.02 in Snow Light Snow
1:05 PM 28.4 °F 20.4 °F 24.8 °F 86% 29.99 in 1.8 mi East 8.1 mph - 0.01 in Snow Light Snow
1:44 PM 28.4 °F 20.4 °F 26.6 °F 93% 29.96 in 0.8 mi East 8.1 mph - 0.04 in Snow Light Snow
1:56 PM 28.9 °F 21.1 °F 26.1 °F 89% 29.99 in 0.5 mi ESE 8.1 mph - 0.06 in Fog , Snow Snow
2:03 PM 28.4 °F 20.4 °F 26.6 °F 93% 29.95 in 0.5 mi East 8.1 mph - 0.00 in Fog , Snow Snow
2:18 PM 28.4 °F 19.7 °F 26.6 °F 93% 29.95 in 1.0 mi East 9.2 mph - 0.02 in Snow Light Snow
2:31 PM 28.4 °F 20.4 °F 26.6 °F 93% 29.94 in 0.8 mi ESE 8.1 mph - 0.03 in Snow Light Snow
2:40 PM 28.4 °F 19.7 °F 26.6 °F 93% 29.93 in 0.2 mi East 9.2 mph - 0.05 in Fog , Snow Heavy Snow
2:56 PM 28.9 °F 19.8 °F 26.1 °F 89% 29.97 in 0.5 mi East 10.4 mph - 0.08 in Fog , Snow Snow
3:03 PM 28.4 °F 18.0 °F 26.6 °F 93% 29.92 in 1.0 mi ESE 12.7 mph - 0.00 in Snow Light Snow
3:11 PM 28.4 °F 18.5 °F 26.6 °F 93% 29.91 in 0.5 mi East 11.5 mph - 0.02 in Fog , Snow Snow
3:25 PM 28.4 °F 19.1 °F 26.6 °F 93% 29.91 in 1.0 mi ESE 10.4 mph - 0.04 in Snow Light Snow
3:52 PM 28.4 °F 19.1 °F 26.6 °F 93% 29.91 in 2.5 mi ESE 10.4 mph - 0.07 in Snow Light Snow
3:53 PM 28.9 °F 19.2 °F 26.1 °F 89% 29.94 in 2.5 mi ESE 11.5 mph - 0.07 in Snow Light Snow
4:07 PM 28.4 °F 19.7 °F 26.6 °F 93% 29.90 in 1.0 mi ESE 9.2 mph - 0.01 in Snow Light Snow
4:14 PM 28.4 °F 18.5 °F 26.6 °F 93% 29.90 in 1.2 mi ESE 11.5 mph - 0.01 in Snow Light Snow
4:21 PM 28.4 °F 18.0 °F 26.6 °F 93% 29.89 in 3.0 mi ESE 12.7 mph - 0.01 in Snow Light Snow
4:40 PM 28.4 °F 19.1 °F 26.6 °F 93% 29.89 in 2.0 mi ESE 10.4 mph - 0.02 in Snow Light Snow
4:51 PM 28.4 °F 19.1 °F 26.6 °F 93% 29.89 in 5.0 mi ESE 10.4 mph - 0.02 in   Overcast
4:56 PM 28.9 °F 20.4 °F 26.1 °F 89% 29.92 in 5.0 mi SE 9.2 mph - 0.02 in   Overcast
5:29 PM 28.4 °F 21.2 °F 26.6 °F 93% 29.88 in 6.0 mi SE 6.9 mph - 0.00 in   Overcast
5:42 PM 28.4 °F 19.1 °F 26.6 °F 93% 29.87 in 4.0 mi ESE 10.4 mph - 0.01 in Rain Light Freezing Rain
5:56 PM 28.9 °F 21.9 °F 26.1 °F 89% 29.91 in 4.0 mi SE 6.9 mph - 0.01 in Rain Light Freezing Rain
6:54 PM 30.2 °F 21.9 °F 26.6 °F 86% 29.86 in 2.5 mi SE 9.2 mph - 0.00 in Rain Light Freezing Rain
6:56 PM 30.0 °F 21.7 °F 28.0 °F 92% 29.90 in 2.5 mi SE 9.2 mph - 0.00 in Rain Light Freezing Rain
7:14 PM 30.2 °F 21.3 °F 26.6 °F 86% 29.85 in 3.0 mi SE 10.4 mph - 0.00 in Rain Light Freezing Rain
7:56 PM 30.0 °F 24.1 °F 27.0 °F 88% 29.88 in 4.0 mi SE 5.8 mph - 0.00 in Rain Light Freezing Rain
8:56 PM 30.0 °F 26.5 °F 28.0 °F 92% 29.88 in 4.0 mi Variable 3.5 mph - 0.01 in Rain Light Freezing Rain
9:23 PM 30.2 °F 23.4 °F 28.4 °F 93% 29.83 in 3.0 mi ESE 6.9 mph - 0.00 in   Overcast
9:56 PM 30.0 °F 24.1 °F 28.0 °F 92% 29.85 in 3.0 mi ESE 5.8 mph - 0.01 in   Overcast
10:48 PM 30.2 °F 26.7 °F 28.4 °F 93% 29.81 in 2.5 mi ESE 3.5 mph - 0.01 in Snow Light Snow
10:56 PM 30.9 °F 27.5 °F 28.9 °F 92% 29.84 in 2.5 mi ESE 3.5 mph - 0.01 in   Overcast
11:03 PM 30.2 °F 26.7 °F 28.4 °F 93% 29.80 in 3.0 mi ESE 3.5 mph - 0.00 in   Overcast
11:56 PM 30.9 °F - 28.9 °F 92% 29.84 in 3.0 mi Calm Calm - 0.00 in   Overcast